Portada
METAR-TAF:

METAR-TAF

Aeroports :

Sialkot, Pakistan

latitud: 32-32N, longitud: 74-22E, altitud: 255 m

Observació

L'informe es va fer fa 9 minuts, a les 00:00 UTC
Vent calma
Temperatura 14°C
Humitat 88%
Pressió 1017 hPa
Visibilitat: 4000 m
Núvols disperses a una alçada de 10000 ft
fum

METAR: OPST 220000Z 00000KT 4000 FU SCT100 14/12 Q1017 NOSIG RH89

Hora: 05:09 (00:09 UTC)


TAF: manca

Observacions i pronòstics meteorològics de més de 4000 aeroports (METAR i TAF).

Les estacions disponibles són els punts grocs i vermells al mapa.

Posi el ratolí al punt desitjat per veure el nom de l'estació.

Feu clic per veure les observacions i els pronòstics meteorològics.

Per canviar el mapa: feu clic els botons verds amb una creu de color negre per apropar; al botó verd amb un guió per allunyar la imatge; o en les fletxes verdes per a mapes adjacents.


METAR-TAF: